397  
ASUS44 KLIX 160806  
RWRLIX  
NEW ORLEANS REGIONAL WEATHER ROUNDUP  
NATIONAL WEATHER SERVICE NEW ORLEANS LA  
300 AM CDT THU AUG 16 2018  
 
NOTE: "FAIR" INDICATES FEW OR NO CLOUDS BELOW 12,000 FEET WITH NO  
SIGNIFICANT WEATHER AND/OR S TO VISIBILITY
.  
SKY/WX - SKY CONDITION AND SIGNIFICANT WEATHER.  
TMP - AIR TEMPERATURE. DP - DEWPOINT TEMPERATURE.  
RH - RELATIVE HUMIDITY. PRES - PRESSURE.  
HI - HEAT INDEX. WCI - WIND CHILL INDEX.  
 
* THESE STATIONS ARE NOT NWS OR FAA STATIONS AND ARE NOT UNDER  
NWS QUALITY CONTROL.  
 
LAZ038-040-048-061>063-065>067-069-160900-  
SOUTHEAST LOUISIANA  
 
CITY SKY/WX TMP DP RH WIND PRES REMARKS
 
N.O. INTL ARPT FAIR 80 78 94 S3 30.03S  
N.O. LAKEFRONT FAIR 82 77 84 S7 30.03S  
N.O. DOWNTOWN* FAIR 83 77 82 SE6 30.04S  
RESERVE* N/A 79 76 91 CALM 30.04S  
SLIDELL FAIR 75 72 90 CALM 30.03S  
BATON ROUGE FAIR 75 73 93 NE3 30.03S  
BOOTHVILLE FAIR 83 75 77 CALM 30.04S  
BELLE CHASSE FAIR 77 77 100 SW5 30.03S  
BOGALUSA* FAIR 77 73 87 CALM 30.04S  
GALLIANO* FAIR 75 70 83 CALM 30.03S HAZE  
NEW ROADS* FAIR 73 72 96 CALM 30.03S  
GONZALES* FAIR 75 75 98 CALM 30.03R  
HAMMOND* N/A 73 73 100 CALM 30.04R  
HOUMA* CLOUDY 77 76 96 CALM 30.03S  
PORT FOURCHON* MOSUNNY 84 75 74 S5 30.03S  
 

 
 
MSZ070-080>082-160900-  
SOUTHERN MISSISSIPPI  
 
CITY SKY/WX TMP DP RH WIND PRES REMARKS
 
MCCOMB FAIR 76 73 91 CALM 30.04F  
GULFPORT MOCLDY 81 76 84 CALM 30.02S  
BILOXI FAIR 83 75 77 S7 30.03S  
PASCAGOULA FAIR 77 74 90 CALM 30.04S  
 

 
 
COASTAL OBSERVATIONS  
LAKE AND NEARSHORE STATIONS  
 
STATION/POSITION TIME SKY/WX TEMP WIND PRES WAVE
 
AIR SEA DIR/SP/G HT/PER  
(UTC) (F) (DEG/KT/KT) (MB) (FT/S)  
WAVELAND YACHT 0748 81 88 250/ 3/ 4 1016.9  
GRAND ISLE 0736 80 88 210/ 5/ 13 1017.3  
SOUTHWEST PASS 0736 85 85 190/ 6/ 8 1017.6  
NEW CANAL 0736 82 89 160/ 1/ 2 1016.8  
SHELL BEACH 0748 82 91 170/ 5/ 5 1017.0  
 
OFFSHORE STATIONS  
 
STATION/POSITION TIME SKY/WX TEMP WIND PRES WAVE
 
AIR SEA DIR/SP/G HT/PER  
(UTC) (F) (DEG/KT/KT) (MB) (FT/S)  
64 S DAUPHIN ISL 0750 87 170/ 10/ 14 1017.2 2/ 3  
 

 
 
 
 
CLICK HERE TO GO TO PREVIOUS BULLETINS.

The Nexlab LA Page
The Nexlab MS Page Main Text Page